Griffin, GA

9:42 PM EST on February 27, 2017 (GMT -0500)
Griffin-Spaldg Cnty AP, Griff

Weather History for K6A2 - January, 2014

Change the Weather History Date:

Tuesday, January 7, 2014

  Actual Average (KFFC) Record (KFFC)
Temperature  
Mean Temperature 20 °F -  
Max Temperature 30 °F 52 °F 71 °F (2008)
Min Temperature 10 °F 29 °F 7 °F (2014)
Degree Days  
Heating Degree Days 45    
Moisture  
Dew Point -    
Average Humidity    
Maximum Humidity    
Minimum Humidity    
Precipitation  
Precipitation 0.00 in - - ()
Sea Level Pressure  
Sea Level Pressure 30.45 in    
Wind  
Wind Speed 8 mph (NW)    
Max Wind Speed 20 mph    
Max Gust Speed 23 mph    
Visibility 10 miles    
Events      
Averages and records for this station are not official NWS values.
T = Trace of Precipitation, MM = Missing Value Source: NWS Daily Summary

Daily Weather History Graph

Daily Weather History Graph

Search for Another Location

Airport or City:

Trip Planner

Search our weather history database for the weather conditions in past years. The results will help you decide how hot, cold, wet, or windy it might be!

Date:

Astronomy

Jan. 07, 2014 Rise Set
Actual Time 7:41 AM EST 5:45 PM EST
Civil Twilight 7:14 AM EST 6:12 PM EST
Nautical Twilight 6:43 AM EST 6:43 PM EST
Astronomical Twilight 6:13 AM EST 7:13 PM EST
Moon 11:52 AM EST (1/7) No Moon Set
Length of Visible Light 10h 58m
Length of Day
10h 04m
Waxing Crescent, 45% of the Moon is Illuminated
Jan 7
Waxing Crescent
Jan 7
First Quarter
Jan 15
Full
Jan 24
Last Quarter
Jan 30
New

Hourly Weather History & Observations

Time (EST) Temp. Windchill Dew Point Humidity Pressure Visibility Wind Dir Wind Speed Gust Speed Precip Events Conditions
12:15 AM 15.8 °F 1.4 °F - N/A% 30.40 in 10.0 mi WNW 13.8 mph 17.3 mph N/A   Clear
12:35 AM 15.8 °F 1.4 °F - N/A% 30.41 in 10.0 mi WNW 13.8 mph 19.6 mph N/A   Clear
12:55 AM 15.8 °F 2.1 °F - N/A% 30.41 in 10.0 mi WNW 12.7 mph 20.7 mph N/A   Clear
1:15 AM 15.8 °F -1.1 °F - N/A% 30.41 in 10.0 mi WNW 19.6 mph 23.0 mph N/A   Clear
1:35 AM 15.8 °F 3.4 °F - N/A% 30.41 in 10.0 mi WNW 10.4 mph 17.3 mph N/A   Clear
1:55 AM 15.8 °F 4.2 °F - N/A% 30.41 in 10.0 mi NW 9.2 mph 18.4 mph N/A   Clear
2:15 AM 15.8 °F 3.4 °F - N/A% 30.42 in 10.0 mi NW 10.4 mph 18.4 mph N/A   Clear
2:35 AM 15.8 °F 4.2 °F - N/A% 30.41 in 10.0 mi NW 9.2 mph - N/A   Clear
2:55 AM 14.0 °F 2.9 °F - N/A% 30.41 in 10.0 mi NW 8.1 mph 16.1 mph N/A   Clear
3:15 AM 12.2 °F -0.2 °F - N/A% 30.41 in 10.0 mi NW 9.2 mph - N/A   Clear
3:35 AM 12.2 °F -0.2 °F - N/A% 30.41 in 10.0 mi NW 9.2 mph - N/A   Clear
3:55 AM 12.2 °F -1.0 °F - N/A% 30.42 in 10.0 mi NW 10.4 mph 18.4 mph N/A   Clear
4:15 AM 12.2 °F -1.0 °F - N/A% 30.43 in 10.0 mi NW 10.4 mph - N/A   Clear
4:35 AM 12.2 °F 2.9 °F - N/A% 30.43 in 10.0 mi NW 5.8 mph - N/A   Clear
4:55 AM 12.2 °F 2.9 °F - N/A% 30.42 in 10.0 mi NNW 5.8 mph 9.2 mph N/A   Clear
5:15 AM 12.2 °F 1.7 °F - N/A% 30.42 in 10.0 mi NW 6.9 mph - N/A   Clear
5:35 AM 12.2 °F 2.9 °F - N/A% 30.41 in 10.0 mi NW 5.8 mph - N/A   Clear
5:55 AM 10.4 °F 2.2 °F - N/A% 30.42 in 10.0 mi NW 4.6 mph - N/A   Clear
6:15 AM 10.4 °F 2.2 °F - N/A% 30.42 in 10.0 mi NNW 4.6 mph - N/A   Clear
6:35 AM 10.4 °F -0.4 °F - N/A% 30.43 in 10.0 mi NW 6.9 mph - N/A   Clear
6:55 AM 10.4 °F -1.5 °F - N/A% 30.44 in 10.0 mi NW 8.1 mph - N/A   Clear
7:15 AM 10.4 °F -0.4 °F - N/A% 30.45 in 10.0 mi NW 6.9 mph - N/A   Clear
7:35 AM 10.4 °F -1.5 °F - N/A% 30.47 in 10.0 mi NW 8.1 mph - N/A   Clear
7:55 AM 10.4 °F -2.4 °F - N/A% 30.47 in 10.0 mi NW 9.2 mph - N/A   Clear
8:15 AM 10.4 °F -0.4 °F - N/A% 30.48 in 10.0 mi NW 6.9 mph 16.1 mph N/A   Clear
8:35 AM 10.4 °F -4.1 °F - N/A% 30.48 in 10.0 mi NW 11.5 mph - N/A   Clear
8:55 AM 12.2 °F 2.9 °F - N/A% 30.49 in 10.0 mi NW 5.8 mph - N/A   Clear
9:15 AM 12.2 °F 2.9 °F - N/A% 30.50 in 10.0 mi NW 5.8 mph - N/A   Clear
9:35 AM 12.2 °F 0.7 °F - N/A% 30.51 in 10.0 mi NNW 8.1 mph - N/A   Clear
9:55 AM 15.8 °F 4.2 °F - N/A% 30.52 in 10.0 mi NNW 9.2 mph - N/A   Clear
10:15 AM 15.8 °F 6.1 °F - N/A% 30.51 in 10.0 mi North 6.9 mph - N/A   Clear
10:35 AM 15.8 °F 10.2 °F - N/A% 30.50 in 10.0 mi NW 3.5 mph - N/A   Clear
10:55 AM 17.6 °F 10.7 °F - N/A% 30.50 in 10.0 mi NNW 4.6 mph - N/A   Clear
11:15 AM 17.6 °F 8.2 °F - N/A% 30.49 in 10.0 mi North 6.9 mph - N/A   Clear
11:35 AM 19.4 °F 14.3 °F - N/A% 30.49 in 10.0 mi NW 3.5 mph - N/A   Clear
11:55 AM 21.2 °F 14.9 °F - N/A% 30.49 in 10.0 mi WNW 4.6 mph - N/A   Clear
12:15 PM 21.2 °F 12.6 °F - N/A% 30.48 in 10.0 mi NW 6.9 mph - N/A   Clear
12:35 PM 21.2 °F - - N/A% 30.47 in 10.0 mi Calm Calm - N/A   Clear
12:55 PM 23.0 °F 13.9 °F - N/A% 30.45 in 10.0 mi WNW 8.1 mph - N/A   Clear
1:15 PM 23.0 °F 13.1 °F - N/A% 30.45 in 10.0 mi WNW 9.2 mph - N/A   Clear
1:35 PM 24.8 °F 17.9 °F - N/A% 30.45 in 10.0 mi West 5.8 mph - N/A   Clear
1:55 PM 26.6 °F 20.0 °F - N/A% 30.44 in 10.0 mi NW 5.8 mph - N/A   Clear
2:15 PM 26.6 °F 20.0 °F - N/A% 30.43 in 10.0 mi NNW 5.8 mph - N/A   Clear
2:35 PM 28.4 °F 22.2 °F - N/A% 30.43 in 10.0 mi NNW 5.8 mph - N/A   Clear
2:55 PM 28.4 °F 24.6 °F - N/A% 30.43 in 10.0 mi West 3.5 mph - N/A   Clear
3:15 PM 28.4 °F 20.4 °F - N/A% 30.43 in 10.0 mi WNW 8.1 mph - N/A   Clear
3:35 PM 28.4 °F 22.2 °F - N/A% 30.44 in 10.0 mi NW 5.8 mph - N/A   Clear
3:55 PM 28.4 °F - - N/A% 30.44 in 10.0 mi Calm Calm - N/A   Clear
4:15 PM 30.2 °F 24.3 °F - N/A% 30.44 in 10.0 mi WNW 5.8 mph - N/A   Clear
4:35 PM 30.2 °F 22.6 °F - N/A% 30.45 in 10.0 mi WNW 8.1 mph - N/A   Clear
4:55 PM 30.2 °F 26.7 °F - N/A% 30.45 in 10.0 mi NNW 3.5 mph - N/A   Clear
5:15 PM 28.4 °F 22.2 °F - N/A% 30.46 in 10.0 mi WNW 5.8 mph - N/A   Clear
5:35 PM 28.4 °F 23.3 °F - N/A% 30.46 in 10.0 mi WNW 4.6 mph - N/A   Clear
5:55 PM 26.6 °F 22.6 °F - N/A% 30.46 in 10.0 mi NW 3.5 mph - N/A   Clear
6:15 PM 26.6 °F 22.6 °F - N/A% 30.46 in 10.0 mi NW 3.5 mph - N/A   Clear
6:35 PM 26.6 °F 22.6 °F - N/A% 30.47 in 10.0 mi WNW 3.5 mph - N/A   Clear
6:55 PM 26.6 °F 22.6 °F - N/A% 30.47 in 10.0 mi WNW 3.5 mph - N/A   Clear
7:15 PM 24.8 °F - - N/A% 30.48 in 10.0 mi Calm Calm - N/A   Clear
7:35 PM 23.0 °F 18.4 °F - N/A% 30.47 in 10.0 mi WNW 3.5 mph - N/A   Clear
7:55 PM 23.0 °F - - N/A% 30.48 in 10.0 mi Calm Calm - N/A   Clear
8:15 PM 23.0 °F - - N/A% 30.47 in 10.0 mi Calm Calm - N/A   Clear
8:35 PM 23.0 °F - - N/A% 30.48 in 10.0 mi Calm Calm - N/A   Clear
8:55 PM 23.0 °F 18.4 °F - N/A% 30.48 in 10.0 mi NW 3.5 mph - N/A   Clear
9:15 PM 23.0 °F - - N/A% 30.48 in 10.0 mi Calm Calm - N/A   Clear
9:35 PM 23.0 °F 18.4 °F - N/A% 30.48 in 10.0 mi NW 3.5 mph - N/A   Clear
9:55 PM 23.0 °F - - N/A% 30.48 in 10.0 mi Calm Calm - N/A   Clear
10:15 PM 21.2 °F - - N/A% 30.49 in 10.0 mi Calm Calm - N/A   Clear
10:35 PM 21.2 °F - - N/A% 30.49 in 10.0 mi Calm Calm - N/A   Clear
10:55 PM 21.2 °F - - N/A% 30.48 in 10.0 mi Calm Calm - N/A   Clear
11:15 PM 21.2 °F - - N/A% 30.47 in 10.0 mi Calm Calm - N/A   Clear
11:35 PM 21.2 °F - - N/A% 30.47 in 10.0 mi Calm Calm - N/A   Clear
11:55 PM 21.2 °F - - N/A% 30.47 in 10.0 mi Calm Calm - N/A   Clear